Location: St Andrew
(49.4460°N, 2.5750°W)
Time: 20:21:11
(UTC+01:00)

Daily predictions for brighter satellites

Satellite Brightness Start Highest point End
(mag) Time Altitude Azimuth Time Altitude Azimuth Time Altitude Azimuth
Cosmos 2221 3.8 20:41:27 10° SSW 20:45:34 47° WNW 20:49:42 10° N
Cosmos 2154 Rocket 4.0 20:39:49 10° S 20:46:02 72° E 20:52:15 10° NNE
Lacrosse 5 3.3 20:41:48 10° WNW 20:46:27 35° N 20:51:06 10° ENE
NOSS 2-1 (E) 3.4 20:43:39 10° SSW 20:47:14 54° SE 20:51:25 10° NE
Cosmos 1515 Rocket 4.4 20:44:44 10° SSE 20:48:39 31° E 20:52:36 10° NNE
Cosmos 2184 Rocket 4.5 20:43:25 10° SSW 20:49:32 67° WNW 20:55:42 10° N
NOSS 3-4 (A) 4.3 20:43:56 10° NW 20:50:35 51° NE 20:57:44 10° ESE
NOSS 3-4 (C) 4.3 20:44:02 10° NW 20:50:40 50° NE 20:57:49 10° ESE
Cosmos 2228 Rocket 3.8 20:48:22 10° SSE 20:52:18 33° E 20:56:16 10° NNE
Cosmos 2322 4.2 20:47:01 10° SW 20:52:39 68° WNW 20:58:21 10° NNE
Spot 2 Rocket 3.5 20:50:52 10° SSE 20:55:56 70° ENE 21:01:01 10° N
Cosmos 1340 2.9 20:53:06 10° SSW 20:56:53 76° WNW 21:00:42 10° N
SL-16 R/B 3.8 20:57:39 10° SE 21:00:40 15° E 21:03:40 10° ENE
NOSS 3-3 (A) 4.1 20:55:21 10° SSW 21:01:17 57° ESE 21:07:51 10° NE
NOSS 3-3 (C) 4.1 20:55:29 10° SSW 21:01:24 57° ESE 21:07:57 10° NE
Cosmos 1943 Rocket 4.4 21:00:40 10° N 21:02:42 12° NNE 21:04:43 10° NE
Meteor 2-3 Rocket 3.8 20:58:46 10° NNW 21:04:24 87° WSW 21:10:02 10° S
Cosmos 1825 2.5 21:02:46 10° N 21:06:27 46° ENE 21:10:06 10° SSE
ARGOS 3.7 21:02:28 10° SE 21:07:26 41° ENE 21:12:27 10° N
Cosmos 1328 Rocket 3.6 21:03:14 10° S 21:07:37 67° E 21:12:03 10° NNE
Cosmos 44 4.5 21:04:35 10° WSW 21:08:59 46° NW 21:13:42 10° NNE
Cosmos 2341 Rocket 4.0 21:02:43 10° S 21:09:03 73° E 21:15:22 10° NNE
Cosmos 962 Rocket 4.4 21:05:29 10° S 21:11:35 79° E 21:17:48 10° NNE
ATLAS CENTAUR R/B 1.4 21:08:41 10° SSW 21:12:11 44° ESE 21:15:53 10° NE
NOSS 0 Rocket 4.1 21:07:16 10° S 21:13:12 51° ESE 21:19:12 10° NE
Cosmos 2218 Rocket 4.4 21:08:15 10° SSE 21:14:16 47° E 21:20:21 10° NNE
Cosmos 1470 Rocket 3.6 21:11:43 10° N 21:16:08 87° E 21:20:34 10° S
Resurs 01 Rocket 2.2 21:12:09 10° S 21:16:32 60° WSW 21:20:57 10° NNW
BREEZE-M DEB (TANK) 4.0 21:13:28 10° WNW 21:17:39 29° SW 21:19:37 12° SSE
Meteor 2-10 Rocket 4.3 21:18:40 10° SSE 21:23:53 38° E 21:29:12 10° NNE
Cosmos 2360 Rocket 4.1 21:19:53 10° WSW 21:24:59 34° NW 21:30:06 10° NNE
Cosmos 2366 rocket 4.2 21:20:04 10° SSE 21:26:03 51° E 21:32:07 10° NNE
Cosmos 1980 3.8 21:20:56 10° S 21:26:27 56° ESE 21:32:01 10° NE
Cosmos 2297 4.0 21:21:40 10° NNW 21:27:14 53° NE 21:31:34 17° SE
SL-08 RB Rocket 4.2 21:24:05 15° SE 21:27:25 42° ENE 21:31:38 10° N
Cosmos 407 Rocket 3.7 21:24:45 10° NNW 21:29:49 55° ENE 21:33:37 17° SE
BREEZE-M DEB (TANK) 2.5 21:24:02 10° W 21:31:32 90° NW 21:33:43 16° E
Cosmos 1939 Rocket 4.5 21:28:35 10° SSW 21:32:06 33° W 21:35:42 10° NNW
Cosmos 2369 Rocket 4.0 21:29:39 10° N 21:33:49 20° NE 21:37:57 10° E
ERS-1 Rocket 3.4 21:30:09 16° SE 21:33:52 47° ENE 21:38:41 10° N
SL-8 Rocket 4.0 21:28:57 10° S 21:35:14 76° E 21:41:31 10° NNE
Cosmos 2333 Rocket 2.3 21:31:07 10° SSW 21:36:47 85° WNW 21:42:29 10° NNE
Cosmos 1869 3.4 21:33:32 10° S 21:37:28 55° E 21:41:26 10° NNE
Aureole 2 4.0 21:35:11 10° SSW 21:38:10 85° WNW 21:41:09 10° NNE
Cosmos 1339 Rocket 4.4 21:32:07 10° N 21:38:13 70° E 21:43:45 13° SSE
H-2A R/B 2.2 21:34:41 17° SE 21:38:30 55° ENE 21:43:21 10° N
COSMOS 2428 3.7 21:36:33 10° SW 21:42:08 52° NW 21:47:45 10° NNE
Cosmos 1371 Rocket 4.2 21:37:57 10° S 21:43:05 52° ESE 21:48:18 10° NNE
USA 234 3.9 21:37:03 10° E 21:43:19 51° NNE 21:49:36 10° WNW
Cosmos 1933 Rocket 4.1 21:40:25 10° NNW 21:44:45 58° W 21:49:01 10° S
BREEZE M DEB (TANK) 4.4 21:26:07 10° WSW 21:47:32 73° SSE 21:52:51 10° ENE
Cosmos 676 Rocket 4.3 21:44:28 10° NNW 21:49:39 53° ENE 21:52:41 23° SE
Cosmos 1408 3.6 21:47:44 10° NNW 21:51:15 45° W 21:54:47 10° SSW
MetOp-A 4.1 21:47:18 15° SSE 21:51:48 89° ENE 21:57:12 10° NNW
Cosmos 2219 Rocket 2.9 21:46:41 10° SW 21:52:16 59° WNW 21:57:52 10° NNE
Cosmos 1151 Rocket 3.4 21:49:16 10° SSW 21:53:29 63° WNW 21:57:46 10° N
Cosmos 2237 Rocket 2.1 21:48:14 10° SSW 21:53:51 81° ESE 21:59:31 10° NNE
Cosmos 2278 Rocket 3.2 21:53:47 10° NW 21:59:07 43° WSW 22:04:13 11° S
Helios 1B rocket 3.6 21:56:07 10° NE 21:59:32 24° E 21:59:43 24° E
Cosmos 1455 4.2 21:56:19 10° SW 21:59:44 30° WNW 22:03:11 10° N
Cosmos 1441 Rocket 3.5 22:00:23 34° SE 22:01:23 42° E 22:04:57 10° NNE
Cosmos 1707 Rocket 4.1 22:01:41 30° SE 22:03:00 37° E 22:06:59 10° NNE
ATLAS 5 CENTAUR R/B 3.5 21:58:23 10° NW 22:03:25 33° NNE 22:08:00 14° E
Cosmos 2056 Rocket 3.5 21:59:15 10° S 22:04:35 63° ESE 22:09:56 10° NNE
Cosmos 1452 Rocket 4.4 22:04:52 26° ESE 22:05:44 27° E 22:10:07 10° NE
Cosmos 864 Rocket 4.4 22:00:41 10° S 22:06:49 89° W 22:13:00 10° N
Cosmos 1869 Rocket 3.4 22:02:44 10° N 22:07:10 80° E 22:09:21 29° SSE
Cosmos 2098 Rocket 3.0 22:06:04 10° SSW 22:10:39 76° W 22:14:17 10° N
ATLAS 2AS CENTAUR R/B 4.2 22:03:52 10° NW 22:10:42 33° WSW 22:17:06 10° S
Terra 2.7 22:12:46 27° ESE 22:14:24 35° ENE 22:18:43 10° N
Cosmos 1733 Rocket 3.9 22:14:38 10° N 22:18:41 34° ENE 22:19:34 31° E
Helios 1A 2.9 22:18:48 36° SSE 22:20:30 89° ENE 22:24:43 10° NNW
Cosmos 1862 3.4 22:16:51 10° NNW 22:20:55 75° W 22:22:36 34° S
Cosmos 1190 Rocket 4.4 22:15:44 10° NNW 22:20:56 59° WSW 22:24:02 24° S
CARTOSAT-1 4.2 22:20:03 34° ESE 22:21:08 40° ENE 22:25:12 10° N
RESURS DK-1 4.2 22:17:56 10° N 22:21:11 21° NE 22:22:38 18° ENE
Cosmos 1624 Rocket 3.9 22:16:25 10° SSW 22:21:36 88° ESE 22:26:51 10° NNE
Cosmos 1140 Rocket 3.4 22:19:40 10° NNW 22:24:54 83° ENE 22:27:02 36° SSE
Cosmos 1437 Rocket 3.3 22:23:21 10° N 22:27:03 41° ENE 22:27:25 40° E
Lacrosse 5 2.5 22:25:18 10° NW 22:30:16 51° NNE 22:32:59 25° E
Cosmos 405 Rocket 2.6 22:29:41 43° S 22:30:52 85° ESE 22:34:51 10° NNE
SPOT 5 2.6 22:30:52 38° SSE 22:32:36 87° WSW 22:37:04 10° NNW
Cosmos 1954 Rocket 3.9 22:28:44 10° NNW 22:34:00 83° WSW 22:36:02 38° SSE
Cosmos 405 4.5 22:30:57 10° NNW 22:34:08 32° W 22:35:36 22° SW
GEOS 3 Rocket 3.7 22:30:38 10° NE 22:35:56 58° SE 22:40:50 12° SSW
Cosmos 1000 Rocket 4.4 22:31:02 10° N 22:37:17 85° E 22:40:21 32° SSE
SL-19 R/B 4.2 22:35:05 35° SSE 22:37:34 88° ENE 22:43:14 10° NNW
USA 245 4.0 22:41:26 29° W 22:41:26 29° W 22:43:12 10° NW
NOSS 3-4 (A) 4.2 22:34:56 10° NW 22:41:42 54° WSW 22:45:32 28° S
NOSS 3-4 (C) 4.2 22:35:01 10° NW 22:41:48 54° WSW 22:45:37 28° S
Cosmos 2242 Rocket 4.2 22:42:18 39° E 22:42:18 39° E 22:46:18 10° NNE
SL-16 R/B 2.1 22:38:14 10° SSW 22:43:54 84° ESE 22:49:35 10° NNE
IGS 5A 3.4 22:46:06 61° SE 22:46:40 71° ENE 22:50:51 10° N
Cosmos 1821 Rocket 4.0 22:43:47 32° S 22:46:53 72° E 22:53:11 10° NNE
CZ-2C R/B 3.4 22:46:01 39° E 22:46:55 43° ENE 22:51:30 10° N
ARGOS 4.5 22:43:46 14° SSW 22:47:47 34° W 22:52:38 10° NNW
Cosmos 1943 Rocket 3.0 22:42:59 10° NNW 22:48:08 38° NE 22:50:03 29° E
SL-8 R/B 3.6 22:43:57 10° WSW 22:48:41 62° SSE 22:49:26 54° ESE
USA 267 3.4 22:43:41 10° ENE 22:49:59 47° SE 22:56:14 10° SSW
ATLAS CENTAUR R/B 3.4 22:48:02 10° W 22:51:19 27° NW 22:54:46 10° NNE
Cosmos 1633 3.1 22:54:22 10° N 22:57:22 49° NE 22:57:22 49° NE
DMSP B5D2-2 4.1 22:53:51 10° NNE 22:59:08 81° WNW 23:01:41 32° SSW
Cosmos 2123 Rocket 4.0 22:53:16 10° N 22:59:37 75° ENE 23:01:43 44° SSE
Meteor 1-4 Rocket 3.2 23:00:06 10° N 23:02:52 47° NNE 23:02:52 47° NNE
Meteor 1-14 Rocket 4.1 22:59:23 10° N 23:04:59 79° E 23:06:18 53° SSE
Cosmos 1933 3.8 23:07:02 47° WSW 23:07:51 57° WNW 23:11:54 10° N
Cosmos 1420 Rocket 3.9 23:07:26 54° S 23:08:36 74° ESE 23:13:56 10° NNE
SPOT 1/Viking Rocket 4.3 23:07:45 32° SSW 23:09:43 47° W 23:14:47 10° NNW
Cosmos 1603 3.8 23:10:48 50° ESE 23:10:53 50° ESE 23:16:17 10° NE
Cosmos 1908 Rocket 3.9 23:07:29 10° N 23:11:44 50° ENE 23:11:44 50° ENE
Cosmos 1943 4.2 23:16:00 31° E 23:16:00 31° E 23:20:03 10° NE
H-2A R/B 4.0 23:16:58 20° ENE 23:17:24 20° ENE 23:20:40 10° NNE
H-2A R/B 3.9 23:15:18 14° SW 23:18:15 22° W 23:22:09 10° NW
Cosmos 2369 Rocket 2.1 23:13:04 10° NNW 23:18:49 78° ENE 23:19:56 58° SE
Meteor 1-29 3.7 23:15:28 10° N 23:18:17 50° NNW 23:18:17 50° NNW
Cosmos 2263 4.4 23:13:30 10° NNW 23:19:05 60° ENE 23:20:12 50° ESE
Cosmos 1862 Rocket 3.5 23:19:13 80° ENE 23:19:13 80° ENE 23:23:31 10° NNE
USA 234 3.2 23:23:40 43° ESE 23:26:04 89° NE 23:32:39 10° WNW
Cosmos 389 Rocket 4.0 23:25:16 10° N 23:27:22 30° NNE 23:27:22 30° NNE
ALOS 2 4.2 23:28:45 24° ENE 23:28:45 24° ENE 23:32:17 10° N
CZ-4C R/B 2.1 23:29:25 63° SE 23:29:25 63° SE 23:35:27 10° NE
Cosmos 1782 3.8 23:30:41 38° NE 23:30:41 38° NE 23:33:23 10° NNE
Meteor 1-25 Rocket 4.3 23:25:03 10° NNW 23:30:47 71° W 23:32:00 54° SSW
Cosmos 921 Rocket 3.4 23:34:44 54° NE 23:34:44 54° NE 23:38:11 10° NNE
Cosmos 2344 3.6 23:27:16 10° SW 23:34:53 86° SE 23:43:44 10° NE
Helios 1B rocket 3.7 23:31:06 10° N 23:34:55 37° WNW 23:36:04 30° WSW
CZ-2C R/B 2.8 23:29:42 10° NNE 23:34:58 57° E 23:34:58 57° E
Cosmos 1606 3.6 23:37:03 47° NNE 23:37:03 47° NNE 23:39:56 10° NNE
Cosmos 1605 Rocket 3.9 23:35:37 55° S 23:37:10 85° E 23:43:36 10° N
Meteor 1-26 Rocket 4.4 23:36:38 46° SW 23:38:12 67° WNW 23:43:46 10° N
Cosmos 2237 Rocket 4.4 23:34:06 10° W 23:38:36 24° NW 23:43:08 10° NNE
Cosmos 1452 Rocket 4.3 23:45:07 28° WSW 23:47:36 49° WNW 23:52:43 10° NNE
ATLAS 5 CENTAUR R/B 2.2 23:42:51 10° NW 23:48:41 81° SW 23:49:32 67° SSE
Cosmos 1447 Rocket 4.3 23:44:45 10° N 23:50:55 85° W 23:51:56 65° S
Terra 3.0 23:51:39 32° WSW 23:52:09 33° W 23:56:28 10° NNW
